Regional Weather Roundup
Issued by NWS

Home | Current Version | Previous Version | Text Only | Print | Product List | Glossary On
Versions: 1 2 3 4 5 6 7 8 9 10 11 12 13 14 15 16 17 18 19 20 21 22 23 24 25 26 27 28 29 30 31 32 33 34 35 36 37 38 39 40 41 42 43 44 45 46 47 48 49 50
702
ASUS46 KPQR 240310
RWROR

OREGON REGIONAL WEATHER ROUNDUP
NATIONAL WEATHER SERVICE PORTLAND OR
800 PM PDT SAT JUL 23 2016

NOTE: "FAIR" INDICATES FEW OR NO CLOUDS BELOW 12,000 FEET WITH
NO SIGNIFICANT WEATHER AND/OR OBSTRUCTIONS TO VISIBILITY.

ORZ001>013-240400-
NORTHWEST OREGON


CITY           SKY/WX    TMP DP  RH WIND       PRES   REMARKS
ASTORIA        CLEAR     65  56  72 NW13      30.21F
NEWPORT        CLEAR     61  54  77 N14       30.20S
PORTLAND       PTCLDY    71  54  54 NW14      30.16F
VANCOUVER WA   CLEAR     70  54  56 NW12      30.16F
SCAPPOOSE      CLEAR     70  53  54 NW8       30.16F
HILLSBORO      PTCLDY    69  53  56 NW10      30.16F
AURORA         CLEAR     70  53  54 N14       30.16S
MCMINNVILLE    CLEAR     71  52  50 N15       30.16S
SALEM          CLEAR     74  53  48 NE12G21   30.13S
CORVALLIS        N/A     77  52  41 N13       30.13S
EUGENE         CLEAR     75  49  39 NE15      30.11F
$$

ORZ021-028-240400-
SOUTHWEST OREGON


CITY           SKY/WX    TMP DP  RH WIND       PRES   REMARKS
NORTH BEND     CLEAR     63  55  77 N25G36    30.15S
BROOKINGS      CLEAR     66  55  67 SE8       29.99R
ROSEBURG       CLEAR     80  44  27 N14       30.07S
SEXTON SUMMIT  CLEAR     64  43  46 N9G20     30.16S
MEDFORD        CLEAR     84  44  24 NW13      30.02R
$$

ORZ014>016-041-240400-
COLUMBIA GORGE


CITY           SKY/WX    TMP DP  RH WIND       PRES   REMARKS
TROUTDALE      CLEAR     71  53  52 NW7       30.15S
THE DALLES     CLEAR     76  51  41 NW10      30.04S
$$

ORZ029>031-041-044-049-050-061>064-502-503-505>511-240400-
EASTERN OREGON


CITY           SKY/WX    TMP DP  RH WIND       PRES   REMARKS
REDMOND        CLEAR     80  31  16 N12       30.11R
BEND           CLEAR     77  37  24 N10       30.12S
PRINEVILLE     CLEAR     77  36  22 N9        30.12R
KLAMATH FALLS  CLEAR     79  41  25 NW12      30.11S
LAKEVIEW       CLEAR    N/A N/A N/A N10       30.15R
HERMISTON      CLEAR     82  41  23 SW3       30.02S
PENDLETON      CLEAR     79  34  19 NW6       30.06S
JOHN DAY       CLEAR     77  30  17 NW6       30.13S
MEACHAM        CLEAR     66  38  35 CALM      30.18R
LA GRANDE      CLEAR     73  37  27 N8        30.10S
BAKER CITY     CLEAR     72  37  28 NW14      30.12R
BURNS          CLEAR     78  26  14 NW12      30.12R
ROME             N/A     83  17   8 N10       30.09R
ONTARIO        CLEAR     80  46  30 W3        30.02R
$$




USA.gov is the U.S. government's official web portal to all federal, state and local government web resources and services.